[[{"header":{"parameterUnit":"m.s-1","parameterCategory":1,"la1":30.2991,"la2":30.254,"lo1":-89.0895,"lo2":-89.0444,"dy":0.0017,"dx":0.0017,"nx":28,"ny":28,"refTime":"2024-12-06T09:00:00:Z","depth":0,"parameterNumber":2,"parameterNumberName":"U-component_of_WINDS"},"data":[0,0,0,0,0,0,0,0,0,0,0,0,0,0,0,0,0,0,0,0,0,0,0,0,0,0,0,0,0,0,0,0,0,0,0,0,0,0,0,0,0,0,0,0,0,0,0,0,0,0,0,0,0,0,0,0,0,0,-1.2286,-1.2287,0,-1.2316,-1.2316,-1.2317,-1.2267,-1.2265,-1.2263,-1.2262,-1.2294,-1.2296,-1.2299,0,0,0,0,0,0,0,0,0,0,0,0,0,-1.2187,-1.2189,-1.2286,-1.2287,-1.2287,-1.2316,-1.2316,-1.2317,-1.2267,-1.2265,-1.2263,-1.2261,-1.2293,-1.2296,-1.2299,0,0,0,0,0,0,0,0,0,0,0,0,0,-1.2225,-1.219,-1.2286,-1.2266,-1.2264,-1.2316,-1.2316,-1.2317,-1.2268,-1.2265,-1.2263,-1.226,-1.2292,-1.2296,-1.2299,-1.2373,0,0,-1.231,-1.2312,0,0,0,0,0,0,0,0,-1.2223,-1.2229,-1.2268,-1.2267,-1.2266,-1.2285,-1.2293,-1.2336,-1.2268,-1.2266,-1.2262,-1.2259,-1.2293,-1.2296,-1.2308,-1.2374,-1.2375,-1.2311,-1.2313,-1.2314,-1.2315,0,0,0,0,0,0,0,-1.222,-1.2227,-1.2298,-1.2269,-1.2267,-1.2255,-1.2258,-1.2301,-1.2294,-1.2266,-1.2263,-1.2267,-1.2292,-1.2304,-1.2308,-1.2376,-1.231,-1.2314,-1.2316,-1.2317,-1.2503,-1.2506,0,0,0,0,0,0,-1.222,-1.2225,-1.2297,-1.2299,-1.2237,-1.2259,-1.2262,-1.2281,-1.2293,-1.2292,-1.2269,-1.2264,-1.2299,-1.2304,-1.2309,-1.2396,-1.2314,-1.2318,-1.232,-1.25,-1.2504,-1.2507,0,0,0,0,0,0,-1.2218,-1.2227,-1.2296,-1.2261,-1.2269,-1.2263,-1.2286,-1.2283,-1.2296,-1.2295,-1.2294,-1.2283,-1.2297,-1.2304,-1.2357,-1.2396,-1.2319,-1.2323,-1.2497,-1.2501,-1.2505,-1.257,0,0,0,0,0,0,-1.2216,-1.2227,-1.2255,-1.2262,-1.2271,-1.2344,-1.2288,-1.2286,-1.2302,-1.2296,-1.2308,-1.2307,-1.2296,-1.2352,-1.236,-1.24,-1.2326,-1.2493,-1.2499,-1.2504,-1.2564,-1.2575,-1.2585,0,0,0,0,0,-1.2212,-1.2272,-1.2256,-1.2265,-1.2306,-1.2346,-1.2351,-1.2336,-1.2305,-1.2334,-1.2333,-1.2307,-1.239,-1.2357,-1.2367,-1.2408,-1.2491,-1.2497,-1.2503,-1.2559,-1.2573,-1.2585,0,0,0,0,0,0,-1.2271,-1.2273,-1.2255,-1.232,-1.2333,-1.2338,-1.2373,-1.2352,-1.2375,-1.2368,-1.2349,-1.2352,-1.2409,-1.2413,-1.2377,-1.2479,-1.2435,-1.2444,-1.2475,-1.2488,-1.2498,-1.2497,-1.2329,0,0,0,0,0,-1.2291,-1.2323,-1.2323,-1.238,-1.2387,-1.2379,-1.2396,-1.2383,-1.2396,-1.2402,-1.2405,-1.2419,-1.2448,-1.2468,-1.2494,-1.2563,-1.2565,-1.2596,-1.2607,-1.2615,-1.2624,-1.266,-1.2674,-1.2527,-1.2527,-1.2527,0,0,-1.2333,-1.2338,-1.236,-1.2391,-1.24,-1.2434,-1.2384,-1.2422,-1.2447,-1.2408,-1.2458,-1.2461,-1.2475,-1.2536,-1.2563,-1.2542,-1.2664,-1.2623,-1.263,-1.2634,-1.2668,-1.2682,-1.2694,-1.2531,-1.253,-1.253,0,0,-1.2428,-1.2435,-1.2483,-1.2492,-1.2506,-1.2499,-1.2511,-1.2518,-1.2518,-1.2568,-1.2539,-1.2568,-1.2618,-1.263,-1.2642,-1.2739,-1.2716,-1.2748,-1.2804,-1.284,-1.2851,-1.2862,-1.2897,-1.2909,-1.2755,-1.2756,-1.2756,0,-1.248,-1.2529,-1.251,-1.255,-1.2565,-1.2529,-1.2577,-1.2587,-1.2609,-1.262,-1.2595,-1.2657,-1.2664,-1.2727,-1.275,-1.2761,-1.2774,-1.2748,-1.2851,-1.2861,-1.287,-1.2904,-1.2917,-1.2759,-1.2759,-1.2759,-1.2758,0,-1.2592,-1.2626,-1.2663,-1.2685,-1.2703,-1.2747,-1.2734,-1.2755,-1.274,-1.2736,-1.2787,-1.2794,-1.2821,-1.2835,-1.2821,-1.2896,-1.2882,-1.2854,-1.281,-1.2889,-1.2919,-1.2932,-1.2765,-1.2764,-1.2762,-1.2761,0,0,-1.2727,-1.2735,-1.2749,-1.2758,-1.2769,-1.2796,-1.2837,-1.2863,-1.2882,-1.2897,-1.2932,-1.2974,-1.2948,-1.2962,-1.2949,-1.298,-1.3056,-1.2948,-1.2948,-1.2969,-1.3139,-1.3161,-1.3176,-1.304,-1.3042,-1.3044,-1.3138,0,-1.2822,-1.2894,-1.2877,-1.2948,-1.298,-1.2945,-1.2981,-1.2992,-1.2989,-1.3015,-1.3012,-1.3042,-1.3005,-1.3014,-1.3043,-1.3041,-1.309,-1.3034,-1.3073,-1.3075,-1.3072,-1.3192,-1.3216,-1.3305,-1.315,-1.3152,-1.3154,0,-1.2943,-1.2962,-1.3037,-1.3041,-1.3054,-1.3087,-1.3109,-1.3134,-1.3145,-1.314,-1.3155,-1.3135,-1.3176,-1.313,-1.3186,-1.3148,-1.3162,-1.3163,-1.3166,-1.3171,-1.312,-1.3201,-1.3332,-1.3346,-1.3173,-1.3171,-1.317,0,-1.3035,-1.308,-1.3129,-1.3138,-1.3145,-1.3168,-1.3172,-1.3181,-1.3197,-1.3215,-1.3226,-1.3249,-1.3262,-1.328,-1.3267,-1.3235,-1.3326,-1.3278,-1.3323,-1.3324,-1.3346,-1.3345,-1.3483,-1.3353,-1.3353,-1.3353,-1.3352,0,-1.3144,-1.3191,-1.3171,-1.3202,-1.3253,-1.3232,-1.3284,-1.3283,-1.3291,-1.3321,-1.3291,-1.3321,-1.33,-1.3327,-1.3317,-1.3365,-1.3371,-1.3369,-1.3366,-1.3372,-1.3373,-1.3383,-1.3377,-1.3356,-1.3355,-1.3355,-1.3354,0,-1.3257,-1.3245,-1.3297,-1.3299,-1.33,-1.3338,-1.3339,-1.3367,-1.3361,-1.3399,-1.3407,-1.3398,-1.3428,-1.3415,-1.3448,-1.344,-1.3502,-1.349,-1.3499,-1.3496,-1.3542,-1.3539,-1.3693,-1.3712,-1.3569,-1.357,-1.3571,0,-1.3328,-1.3363,-1.3368,-1.3386,-1.3391,-1.342,-1.3436,-1.3416,-1.3434,-1.3448,-1.3475,-1.3502,-1.3523,-1.3573,-1.3569,-1.3593,-1.3583,-1.3635,-1.3586,-1.3591,-1.3584,-1.3583,-1.3587,-1.3645,-1.3647,-1.3648,-1.3649,0,-1.3456,-1.3448,-1.3472,-1.3493,-1.3513,-1.3529,-1.3542,-1.3559,-1.3539,-1.3561,-1.3591,-1.3607,-1.3639,-1.3666,-1.3687,-1.3691,-1.3668,-1.3664,-1.3676,-1.3684,-1.3688,-1.3687,-1.3527,-1.3661,-1.366,-1.3659,-1.3659,-1.3658,-1.3551,-1.358,-1.3588,-1.3615,-1.3622,-1.3635,-1.3662,-1.3658,-1.3683,-1.3707,-1.3693,-1.3729,-1.3737,-1.3762,-1.3769,-1.3796,-1.3776,-1.3793,-1.3798,-1.3803,-1.3809,-1.3682,-1.38,-1.38,-1.3799,-1.3799,-1.3799,0,-1.3678,-1.368,-1.3705,-1.3725,-1.3746,-1.372,-1.3733,-1.3753,-1.3784,-1.3793,-1.3814,-1.3848,-1.3874,-1.3871,-1.3895,-1.3917,-1.3907,-1.3924,-1.3923,-1.3925,-1.3826,-1.3813,-1.3932,-1.3932,-1.3932,-1.3932,-1.3932,-1.3932,-1.3747,-1.3795,-1.3787,-1.3839,-1.384,-1.3874,-1.3884,-1.3896,-1.3903,-1.3942,-1.3963,-1.3961,-1.3965,-1.3989,-1.4011,-1.401,-1.402,-1.4042,-1.4037,-1.3945,-1.3932,-1.3919,-1.3908,-1.4044,-1.4044,-1.4133,-1.4134,-1.4135]},{"header":{"parameterUnit":"m.s-1","parameterCategory":1,"la1":30.2991,"la2":30.254,"lo1":-89.0895,"lo2":-89.0444,"dy":0.0017,"dx":0.0017,"nx":28,"ny":28,"refTime":"2024-12-06T09:00:00:Z","depth":0,"parameterNumber":3,"parameterNumberName":"V-component_of_WINDS"},"data":[0,0,0,0,0,0,0,0,0,0,0,0,0,0,0,0,0,0,0,0,0,0,0,0,0,0,0,0,0,0,0,0,0,0,0,0,0,0,0,0,0,0,0,0,0,0,0,0,0,0,0,0,0,0,0,0,0,0,-8.2744,-8.2746,0,-8.2873,-8.2875,-8.2876,-8.2777,-8.2773,-8.2769,-8.2765,-8.289,-8.2897,-8.2904,0,0,0,0,0,0,0,0,0,0,0,0,0,-8.2405,-8.2412,-8.2744,-8.2746,-8.2748,-8.2873,-8.2875,-8.2877,-8.2778,-8.2773,-8.2768,-8.2763,-8.2887,-8.2896,-8.2904,0,0,0,0,0,0,0,0,0,0,0,0,0,-8.2545,-8.2414,-8.2744,-8.2714,-8.2712,-8.2873,-8.2875,-8.2877,-8.2779,-8.2773,-8.2766,-8.276,-8.2884,-8.2895,-8.2906,-8.3101,0,0,-8.2939,-8.2944,0,0,0,0,0,0,0,0,-8.2537,-8.2557,-8.2717,-8.2716,-8.2715,-8.2803,-8.2801,-8.2952,-8.2781,-8.2754,-8.2765,-8.2757,-8.2865,-8.2877,-8.2915,-8.3107,-8.3112,-8.294,-8.2947,-8.2951,-8.2954,0,0,0,0,0,0,0,-8.2528,-8.2551,-8.2795,-8.2719,-8.2718,-8.2691,-8.2704,-8.2829,-8.2843,-8.2755,-8.2749,-8.2766,-8.2864,-8.2905,-8.2918,-8.3114,-8.294,-8.2949,-8.2956,-8.296,-8.347,-8.3477,0,0,0,0,0,0,-8.2522,-8.2544,-8.2791,-8.2799,-8.2609,-8.2702,-8.2717,-8.2781,-8.2842,-8.2845,-8.2771,-8.276,-8.289,-8.2905,-8.2922,-8.3154,-8.2951,-8.2962,-8.2968,-8.3463,-8.3472,-8.3479,0,0,0,0,0,0,-8.2515,-8.2545,-8.2786,-8.267,-8.2698,-8.2715,-8.2788,-8.2787,-8.2828,-8.2854,-8.2855,-8.2811,-8.2885,-8.2906,-8.3057,-8.3156,-8.2966,-8.2976,-8.3455,-8.3466,-8.3476,-8.362,0,0,0,0,0,0,-8.2506,-8.2543,-8.2619,-8.2672,-8.2705,-8.2922,-8.2794,-8.2794,-8.2848,-8.2836,-8.2892,-8.2895,-8.2882,-8.3042,-8.3068,-8.3168,-8.2985,-8.3446,-8.346,-8.3472,-8.3606,-8.3634,-8.3657,0,0,0,0,0,-8.2494,-8.2653,-8.2624,-8.2654,-8.2801,-8.2928,-8.2946,-8.293,-8.2857,-8.2932,-8.2948,-8.2893,-8.3142,-8.3058,-8.3087,-8.3192,-8.344,-8.3456,-8.3471,-8.3595,-8.3628,-8.3657,0,0,0,0,0,0,-8.2608,-8.2659,-8.2627,-8.2809,-8.2865,-8.2911,-8.3006,-8.2967,-8.3043,-8.3028,-8.3002,-8.3016,-8.3174,-8.3198,-8.3104,-8.3383,-8.3279,-8.3301,-8.3362,-8.3395,-8.342,-8.341,-8.2994,0,0,0,0,0,-8.2655,-8.2757,-8.2795,-8.2951,-8.2981,-8.2989,-8.3044,-8.3027,-8.3083,-8.3105,-8.3132,-8.3187,-8.3277,-8.3337,-8.3421,-8.3609,-8.3619,-8.3695,-8.3721,-8.3742,-8.3761,-8.3861,-8.3895,-8.3531,-8.3531,-8.3531,0,0,-8.2752,-8.2793,-8.2858,-8.2975,-8.3017,-8.312,-8.301,-8.3124,-8.3199,-8.3122,-8.3267,-8.3289,-8.3348,-8.3518,-8.3594,-8.3542,-8.3864,-8.3762,-8.3778,-8.3786,-8.3881,-8.3915,-8.3946,-8.3542,-8.354,-8.3538,0,0,-8.2982,-8.3023,-8.3158,-8.3203,-8.3268,-8.3272,-8.3305,-8.3357,-8.3369,-8.3515,-8.3459,-8.3547,-8.3703,-8.3748,-8.3791,-8.4037,-8.3989,-8.4065,-8.4199,-8.4297,-8.4325,-8.4351,-8.4438,-8.447,-8.4084,-8.4085,-8.4085,0,-8.3093,-8.3249,-8.3232,-8.3351,-8.3403,-8.334,-8.3475,-8.3518,-8.3607,-8.3644,-8.3585,-8.378,-8.3815,-8.3994,-8.4055,-8.4092,-8.4126,-8.4059,-8.4323,-8.4348,-8.4372,-8.4454,-8.4487,-8.4094,-8.4093,-8.4092,-8.4091,0,-8.3383,-8.3492,-8.3592,-8.3683,-8.3746,-8.3873,-8.3872,-8.3938,-8.3915,-8.3925,-8.4073,-8.4113,-8.4205,-8.4246,-8.4224,-8.4422,-8.4388,-8.4327,-8.4221,-8.4416,-8.4493,-8.4524,-8.4106,-8.4103,-8.4101,-8.4098,0,0,-8.3688,-8.3767,-8.3805,-8.3845,-8.3912,-8.3995,-8.4117,-8.4209,-8.4266,-8.4329,-8.4429,-8.4563,-8.4508,-8.4556,-8.4538,-8.4625,-8.4816,-8.4552,-8.4553,-8.46,-8.5036,-8.5081,-8.5119,-8.4785,-8.4791,-8.4796,-8.5031,0,-8.392,-8.4137,-8.4124,-8.4326,-8.4426,-8.4368,-8.4474,-8.4526,-8.4538,-8.4622,-8.4634,-8.4729,-8.4649,-8.4678,-8.476,-8.4776,-8.4903,-8.4759,-8.4876,-8.4881,-8.4863,-8.5159,-8.5207,-8.5427,-8.5061,-8.5066,-8.507,0,-8.422,-8.4297,-8.451,-8.4562,-8.4603,-8.47,-8.4783,-8.4865,-8.4921,-8.4924,-8.4979,-8.4947,-8.5068,-8.496,-8.5126,-8.5028,-8.5075,-8.509,-8.5098,-8.5107,-8.4987,-8.5176,-8.5497,-8.553,-8.5117,-8.5113,-8.511,0,-8.4421,-8.4576,-8.4724,-8.476,-8.4825,-8.4894,-8.4924,-8.4974,-8.503,-8.5102,-8.5137,-8.5221,-8.5267,-8.5332,-8.5322,-8.5245,-8.549,-8.5382,-8.5494,-8.5495,-8.5548,-8.5545,-8.5881,-8.558,-8.5579,-8.5579,-8.5578,0,-8.4681,-8.4814,-8.4815,-8.4906,-8.5051,-8.5035,-8.5179,-8.52,-8.5246,-8.5338,-8.5292,-8.5378,-8.5361,-8.5447,-8.544,-8.5578,-8.5598,-8.5602,-8.5599,-8.5607,-8.5606,-8.5637,-8.5621,-8.5588,-8.5586,-8.5584,-8.5582,0,-8.493,-8.4936,-8.5093,-8.5143,-8.5158,-8.5263,-8.5304,-8.5389,-8.5397,-8.5515,-8.5541,-8.5554,-8.5652,-8.565,-8.5761,-8.5756,-8.5925,-8.5904,-8.5907,-8.5902,-8.6015,-8.6004,-8.6382,-8.643,-8.6099,-8.6102,-8.6104,0,-8.5095,-8.5196,-8.5258,-8.5317,-8.5352,-8.5449,-8.5506,-8.5493,-8.5554,-8.5627,-8.5702,-8.5797,-8.5872,-8.6032,-8.605,-8.6134,-8.6114,-8.6241,-8.6126,-8.6131,-8.6115,-8.6109,-8.6119,-8.6263,-8.6267,-8.627,-8.6272,0,-8.5389,-8.5387,-8.5473,-8.5561,-8.5632,-8.5699,-8.5761,-8.5812,-8.5805,-8.5876,-8.5978,-8.6037,-8.6151,-8.6245,-8.6327,-8.6354,-8.6312,-8.6308,-8.6339,-8.6347,-8.6345,-8.6347,-8.5968,-8.6299,-8.6297,-8.6295,-8.6293,-8.6292,-8.56,-8.5687,-8.5744,-8.5841,-8.5887,-8.5947,-8.6029,-8.6048,-8.6134,-8.6228,-8.6214,-8.6328,-8.638,-8.6486,-8.6521,-8.6608,-8.6563,-8.6607,-8.6618,-8.6629,-8.6641,-8.6332,-8.6622,-8.6622,-8.6621,-8.662,-8.662,0,-8.589,-8.5924,-8.6014,-8.6104,-8.618,-8.6137,-8.6203,-8.6269,-8.637,-8.6424,-8.65,-8.6616,-8.6707,-8.6733,-8.682,-8.6884,-8.6867,-8.6908,-8.6902,-8.6909,-8.6677,-8.6642,-8.692,-8.692,-8.692,-8.692,-8.692,-8.692,-8.605,-8.6195,-8.62,-8.6366,-8.6398,-8.6512,-8.6553,-8.6607,-8.665,-8.6783,-8.686,-8.6876,-8.6918,-8.7008,-8.7089,-8.7094,-8.7128,-8.7176,-8.7173,-8.6956,-8.6925,-8.6897,-8.6863,-8.7184,-8.7184,-8.7398,-8.74,-8.7401]}]]